Wind_Speed
63 59 56 55 54 54 53 52 47 43 41 40 41 42 40 36 35 34 31 30 28 28 27 24 20 19 19 18 18 18 18 19 18 18 17 17 18 18 18 19 18 18
62 59 57 56 51 49 51 51 46 41 38 40 42 42 40 37 36 34 32 31 30 29 26 24 21 20 20 20 19 18 18 19 18 18 17 17 18 18 18 19 18 17
63 61 59 56 52 49 51 50 46 41 34 32 37 40 38 36 35 34 33 32 31 29 27 25 22 21 21 20 20 20 20 20 20 19 17 17 18 18 19 19 18 18
65 64 60 57 52 50 51 50 46 43 37 33 35 36 36 35 35 34 34 32 31 29 27 25 23 21 21 21 22 22 22 22 21 20 18 18 19 19 19 19 19 18
66 64 61 59 54 51 52 52 48 45 41 37 36 36 36 37 36 35 34 33 31 29 27 25 24 22 22 22 23 24 24 23 23 21 18 18 19 19 19 19 19 18
67 64 64 62 57 52 53 54 52 48 43 37 36 37 38 38 36 35 34 33 30 28 28 26 24 24 23 24 25 25 25 25 25 22 19 19 20 19 19 19 19 18
63 64 67 64 57 53 54 55 54 49 44 39 38 40 40 38 37 36 34 33 31 30 29 27 26 26 25 25 26 26 26 26 27 24 20 19 20 20 19 19 19 19
57 60 64 61 55 53 55 56 55 50 45 43 42 42 41 39 37 35 34 33 32 31 29 28 27 27 27 26 27 27 27 27 28 25 21 20 21 21 20 19 19 19
55 55 55 53 52 53 55 55 53 49 46 44 44 44 42 40 37 34 33 33 33 31 30 29 29 29 27 27 27 27 28 28 29 27 23 22 23 23 21 20 19 20
57 54 50 49 51 54 55 53 51 49 47 46 45 45 42 40 37 35 34 34 33 32 31 31 30 29 27 26 27 28 28 28 29 27 25 25 25 24 23 21 20 21
57 54 50 50 52 55 54 52 51 50 49 47 46 45 42 40 37 35 35 34 33 32 32 31 30 28 26 26 28 28 28 28 28 27 27 27 27 26 24 22 22 22
56 54 53 52 54 55 54 54 54 52 50 48 46 45 44 41 38 36 35 34 33 33 32 31 29 27 26 26 28 29 29 29 29 28 28 29 29 28 26 24 23 23
57 55 56 55 55 56 56 56 56 52 50 49 47 46 45 42 40 37 35 34 33 33 32 31 29 26 26 27 29 31 30 30 30 29 29 30 30 29 28 26 25 24
56 57 58 58 57 58 58 58 56 53 52 50 47 46 46 44 42 38 35 34 33 33 32 31 30 27 26 27 30 31 31 30 30 30 30 31 31 31 29 27 26 25
55 57 60 60 60 60 59 57 56 54 53 50 48 48 48 46 43 38 35 34 33 33 33 33 31 29 27 28 30 32 32 31 30 31 31 32 32 32 31 29 29 28
57 59 64 64 63 62 59 56 56 54 52 51 49 48 47 46 43 38 35 34 34 33 34 35 34 31 30 30 31 33 34 32 31 32 32 32 32 33 33 32 31 31
57 59 66 68 64 61 58 56 55 53 52 51 48 47 45 45 43 39 37 36 35 35 35 37 36 34 34 33 32 33 35 33 31 32 32 33 34 35 35 33 32 32
57 58 66 68 62 58 56 54 54 52 52 52 49 46 45 44 42 40 39 38 36 35 37 38 39 38 37 36 34 34 35 34 32 32 33 34 35 36 36 34 33 31
57 57 64 65 60 56 53 51 51 52 52 52 49 48 46 44 42 40 39 37 34 34 35 38 41 41 39 37 34 34 35 34 32 33 34 35 36 37 36 35 33 31
56 57 64 66 61 55 50 49 50 50 50 48 48 48 46 43 40 40 39 36 32 33 35 37 40 40 38 37 34 33 34 34 32 33 35 36 37 38 37 35 33 31
56 59 66 66 60 53 50 51 51 48 45 43 43 44 43 41 40 40 39 35 32 32 32 33 36 37 37 36 34 32 33 33 33 34 36 37 38 38 38 35 33 31
56 60 64 62 55 51 51 52 50 45 41 40 40 41 42 41 41 41 39 34 32 31 30 31 34 36 36 36 34 33 33 33 33 35 36 38 38 39 38 36 33 31
55 57 59 57 53 50 51 52 49 44 42 41 42 43 43 42 41 40 38 35 34 32 30 32 35 36 36 36 35 34 34 34 34 36 37 39 39 40 39 37 34 33
54 53 52 52 52 51 51 51 49 45 44 44 45 46 46 44 42 41 39 37 36 33 31 33 36 38 38 38 36 35 36 35 35 37 39 40 40 40 39 37 35 33
54 52 50 51 52 53 53 52 50 47 47 47 48 49 49 46 43 42 41 40 38 35 32 32 35 38 39 39 38 37 37 36 37 38 39 40 41 40 39 38 35 33
55 54 52 52 54 55 54 52 51 50 49 49 50 50 50 47 45 43 43 42 41 37 33 32 34 36 39 39 39 39 38 37 37 38 40 41 41 41 40 38 35 33
Wind_Direction
220 221 223 227 226 223 223 224 224 225 228 233 230 215 206 208 212 217 221 224 230 235 240 245 249 257 262 267 276 272 259 259 270 281 293 308 317 318 314 308 305 305
219 220 223 227 230 230 227 224 223 226 229 232 225 209 205 210 213 219 224 226 232 236 240 245 249 255 262 267 275 272 260 260 269 279 291 305 313 316 311 305 303 303
218 219 222 225 229 231 226 221 222 222 221 221 212 202 206 213 215 220 226 229 234 238 241 245 249 255 262 269 275 274 264 262 269 277 289 302 310 313 309 303 302 302
220 220 221 223 226 226 221 218 221 219 216 213 205 203 209 214 217 222 227 232 236 240 243 246 250 255 262 269 276 277 269 265 268 276 287 299 307 311 309 305 303 302
222 221 222 223 222 221 218 219 221 219 217 214 207 208 213 216 220 225 229 235 238 242 246 250 252 256 261 267 274 279 274 267 268 274 284 296 304 310 310 305 303 301
223 223 225 224 221 220 219 220 221 218 218 216 210 212 216 218 222 226 230 235 239 243 248 251 256 259 261 264 269 277 276 269 268 273 283 293 301 308 307 302 300 299
224 227 227 223 219 219 219 219 218 215 215 217 215 214 217 220 224 227 230 235 239 244 248 252 258 260 261 262 266 275 275 269 267 273 281 291 298 302 301 298 297 296
224 225 221 217 217 218 217 215 214 211 213 216 216 215 218 221 224 228 231 235 240 243 247 252 257 260 261 262 265 272 273 267 266 273 280 287 292 295 296 294 293 293
219 219 216 216 218 214 211 211 210 210 213 215 216 217 219 222 225 228 232 237 240 244 247 251 255 258 260 261 264 270 271 265 264 271 279 283 287 290 292 292 291 289
216 218 218 219 216 209 207 208 209 211 214 215 217 218 219 222 226 229 233 237 241 244 247 250 253 256 257 258 262 267 268 262 261 270 277 280 285 290 293 292 290 288
215 218 218 218 214 208 207 209 210 213 214 215 217 218 219 223 226 230 234 237 241 244 246 250 253 254 254 256 260 265 264 257 258 266 273 278 285 291 292 291 289 288
214 215 217 216 214 211 209 210 212 213 213 214 216 218 220 222 225 229 233 237 241 243 245 249 251 253 254 256 260 262 259 253 255 263 270 277 285 290 291 289 288 288
213 215 216 215 214 213 211 211 213 213 212 213 216 218 220 223 225 228 232 236 240 241 243 246 247 251 254 256 259 259 254 250 254 262 269 276 283 289 291 290 288 289
213 216 217 214 214 214 212 211 213 213 212 214 218 220 222 224 226 228 232 236 239 240 242 243 244 248 253 257 260 258 251 249 254 261 268 275 282 288 290 289 287 287
213 215 215 214 215 215 212 211 212 212 213 216 220 222 223 225 226 228 233 238 241 242 242 242 243 249 254 258 262 258 249 248 255 261 268 275 281 286 288 287 286 286
214 214 213 212 214 214 212 211 212 213 215 218 220 222 224 225 225 229 236 240 242 243 243 242 244 250 256 258 261 258 249 247 254 260 267 274 279 283 286 286 288 288
215 213 210 210 212 212 211 211 213 216 218 219 220 222 223 224 224 229 236 240 243 245 245 244 245 251 257 258 260 258 250 247 252 259 266 272 276 281 285 287 289 289
214 212 209 209 211 210 209 212 215 218 220 220 220 221 224 224 224 229 236 242 247 248 246 245 246 250 255 257 258 257 251 246 250 258 264 270 275 281 285 287 289 289
214 212 208 208 207 206 208 214 216 216 218 220 221 223 225 224 224 230 237 241 246 249 249 248 247 248 251 253 256 256 250 246 250 257 264 269 275 281 285 287 288 289
214 211 207 206 204 204 209 214 215 215 216 217 220 222 223 222 224 231 235 239 247 256 257 252 247 246 247 249 253 254 249 247 250 257 263 269 275 281 285 287 288 289
212 208 204 203 203 205 210 213 213 215 215 216 219 221 220 220 224 229 232 238 251 261 262 255 248 244 245 247 250 250 248 247 251 257 263 269 275 280 283 285 287 287
209 203 200 200 204 208 211 213 213 215 215 216 217 216 215 218 224 228 231 240 253 259 259 253 246 243 244 246 248 248 247 248 251 257 263 269 274 279 282 283 284 283
207 202 200 203 208 211 213 213 214 215 214 214 215 214 215 219 225 228 232 241 250 255 256 250 243 242 245 246 246 247 247 248 251 257 263 268 274 279 281 282 283 281
209 206 204 205 207 210 213 214 214 213 212 212 214 216 217 221 226 230 235 241 247 252 254 250 245 245 247 247 245 245 247 248 251 257 262 268 274 278 280 280 281 281
209 209 208 206 205 208 213 215 215 214 213 212 215 219 220 223 228 233 237 241 245 249 253 254 252 250 249 247 245 245 246 248 251 257 263 268 274 277 279 279 280 281
208 208 207 207 208 210 214 217 217 216 215 215 218 221 223 225 229 234 238 242 245 248 252 257 258 253 250 248 248 247 246 247 251 257 263 269 274 277 278 279 279 282
Height
5771 5776 5780 5782 5784 5788 5791 5796 5800 5802 5805 5806 5809 5815 5818 5819 5822 5824 5826 5829 5831 5833 5835 5836 5838 5839 5840 5841 5842 5842 5842 5842 5842 5842 5842 5841 5841 5840 5840 5839 5838 5837
5767 5772 5775 5777 5781 5785 5789 5794 5798 5800 5801 5802 5805 5811 5814 5816 5819 5822 5824 5826 5829 5831 5833 5834 5836 5838 5838 5839 5840 5840 5840 5840 5840 5840 5840 5840 5840 5840 5839 5837 5836 5836
5762 5766 5770 5774 5778 5782 5786 5792 5795 5797 5798 5800 5803 5807 5811 5814 5817 5820 5822 5824 5826 5828 5830 5832 5834 5836 5837 5837 5838 5838 5838 5839 5839 5839 5839 5838 5839 5838 5837 5836 5835 5834
5756 5761 5766 5770 5774 5778 5782 5788 5792 5794 5796 5799 5802 5806 5809 5811 5815 5817 5820 5822 5824 5826 5828 5830 5833 5835 5835 5836 5837 5837 5837 5837 5837 5837 5837 5837 5837 5837 5836 5835 5834 5833
5752 5758 5763 5766 5770 5774 5778 5784 5788 5792 5794 5797 5800 5803 5806 5809 5813 5816 5818 5820 5822 5824 5825 5828 5830 5833 5834 5834 5835 5835 5835 5835 5835 5835 5835 5835 5835 5835 5834 5833 5832 5831
5749 5755 5760 5763 5767 5770 5775 5780 5785 5789 5792 5794 5798 5801 5804 5808 5811 5813 5816 5818 5820 5821 5823 5826 5828 5830 5832 5833 5833 5834 5834 5833 5833 5834 5834 5833 5833 5833 5832 5831 5830 5829
5747 5752 5755 5759 5763 5766 5771 5776 5781 5785 5789 5792 5796 5799 5802 5805 5808 5811 5813 5815 5817 5819 5821 5824 5826 5828 5829 5830 5831 5831 5832 5832 5831 5832 5832 5832 5831 5830 5830 5829 5828 5827
5745 5748 5750 5754 5759 5761 5766 5772 5777 5782 5786 5790 5793 5797 5800 5803 5805 5808 5810 5812 5814 5817 5819 5821 5823 5825 5826 5827 5828 5829 5829 5830 5830 5830 5830 5830 5829 5828 5827 5827 5826 5825
5741 5743 5746 5749 5753 5757 5762 5769 5774 5779 5783 5787 5790 5793 5796 5799 5802 5805 5807 5810 5812 5815 5817 5819 5820 5821 5823 5824 5825 5826 5827 5827 5828 5828 5828 5828 5827 5825 5825 5824 5824 5823
5735 5739 5742 5746 5749 5753 5759 5766 5771 5775 5779 5783 5786 5790 5793 5796 5799 5802 5805 5807 5810 5812 5814 5815 5817 5818 5820 5821 5822 5822 5824 5825 5826 5826 5826 5825 5824 5824 5823 5822 5821 5820
5731 5734 5739 5743 5746 5751 5757 5763 5767 5771 5775 5779 5783 5787 5791 5794 5797 5799 5802 5804 5807 5809 5811 5812 5814 5816 5817 5817 5818 5819 5821 5823 5823 5823 5823 5823 5823 5822 5821 5820 5819 5818
5728 5731 5735 5740 5744 5748 5754 5759 5763 5767 5772 5776 5781 5785 5788 5792 5794 5797 5799 5802 5804 5806 5808 5809 5811 5813 5814 5814 5815 5816 5817 5820 5821 5821 5820 5821 5821 5820 5819 5818 5816 5816
5724 5728 5732 5737 5742 5746 5751 5755 5759 5764 5769 5774 5778 5782 5786 5789 5792 5794 5797 5799 5801 5803 5805 5806 5808 5810 5810 5811 5811 5812 5814 5816 5817 5818 5818 5818 5818 5818 5817 5816 5814 5813
5720 5724 5728 5734 5739 5743 5747 5752 5756 5762 5766 5771 5776 5780 5783 5786 5789 5792 5794 5796 5798 5800 5802 5804 5805 5806 5807 5807 5808 5809 5812 5814 5814 5815 5815 5815 5816 5815 5815 5814 5812 5811
5716 5721 5725 5731 5735 5739 5744 5749 5754 5759 5764 5768 5773 5777 5780 5783 5787 5790 5792 5794 5796 5797 5799 5801 5802 5803 5803 5804 5805 5807 5809 5811 5812 5812 5812 5812 5813 5813 5812 5811 5809 5808
5713 5717 5721 5727 5731 5736 5741 5747 5752 5757 5761 5766 5770 5773 5777 5780 5784 5787 5789 5791 5793 5794 5796 5797 5798 5799 5800 5801 5803 5804 5806 5808 5808 5809 5809 5809 5810 5809 5809 5808 5806 5805
5709 5713 5717 5723 5728 5733 5739 5744 5749 5754 5758 5762 5766 5770 5773 5776 5780 5784 5786 5787 5789 5791 5792 5793 5795 5796 5797 5798 5800 5801 5803 5804 5805 5806 5806 5806 5806 5806 5806 5805 5803 5802
5706 5710 5715 5720 5726 5732 5737 5742 5746 5751 5755 5759 5763 5767 5770 5773 5777 5780 5782 5784 5786 5787 5788 5790 5791 5792 5793 5795 5797 5798 5799 5800 5801 5802 5802 5803 5803 5803 5803 5802 5800 5799
5703 5708 5713 5718 5724 5730 5735 5739 5743 5747 5751 5755 5760 5763 5766 5770 5774 5777 5778 5780 5782 5783 5784 5786 5787 5788 5789 5791 5793 5794 5795 5796 5797 5798 5799 5800 5800 5800 5799 5799 5797 5796
5699 5704 5709 5715 5722 5727 5732 5736 5740 5744 5748 5752 5756 5759 5763 5767 5771 5773 5774 5776 5778 5779 5780 5781 5782 5784 5786 5788 5790 5791 5792 5793 5794 5795 5796 5796 5797 5797 5796 5796 5795 5793
5696 5701 5706 5712 5718 5723 5728 5732 5736 5741 5745 5749 5753 5757 5760 5764 5767 5769 5770 5772 5773 5774 5775 5777 5778 5780 5782 5784 5785 5786 5788 5789 5790 5792 5793 5793 5793 5793 5793 5793 5792 5791
5693 5697 5703 5709 5714 5720 5724 5728 5733 5738 5742 5746 5750 5754 5757 5760 5763 5765 5767 5768 5770 5770 5772 5774 5775 5777 5779 5780 5781 5782 5784 5786 5787 5789 5789 5790 5790 5790 5789 5789 5789 5788
5689 5693 5699 5705 5711 5716 5721 5725 5730 5734 5739 5743 5747 5750 5753 5756 5759 5761 5763 5765 5766 5767 5769 5771 5772 5774 5775 5777 5778 5779 5781 5783 5784 5785 5786 5786 5786 5786 5786 5786 5786 5784
5686 5691 5696 5702 5708 5713 5718 5722 5726 5731 5735 5740 5743 5746 5749 5753 5755 5757 5759 5761 5763 5765 5767 5768 5769 5771 5772 5773 5774 5776 5777 5779 5781 5782 5782 5783 5783 5783 5783 5783 5783 5781
5684 5689 5694 5700 5705 5710 5714 5718 5723 5727 5732 5736 5739 5742 5745 5749 5751 5753 5755 5757 5760 5762 5764 5765 5766 5768 5769 5770 5771 5772 5774 5776 5777 5778 5779 5779 5780 5780 5779 5779 5779 5778
5680 5686 5692 5697 5702 5706 5709 5713 5718 5723 5727 5732 5735 5738 5742 5745 5748 5750 5752 5754 5757 5759 5761 5762 5763 5765 5766 5767 5768 5769 5771 5772 5773 5774 5775 5776 5776 5776 5776 5775 5775 5774